STARLINK-5598, 55421

Orbit data source: Space-Track

STARLINK-5598, 55421 is a payload satellite owned by SpaceX/Seattle (US) in LEO that was launched on Tue, 31 Jan 2023 UTC via an FALCON 9 launch vehicle from the Air Force Western Test Range (AFWTR). Payload-class satellites include a variety of spacecraft equipped with specific instruments for various scientific and technological missions. These include communications satellites like Starlink; space stations such as the ISS; scientific satellites like the Hubble; Earth observation satellites from companies like Planet Labs, Umbra, and HawkEye 360; GPS; miniature CubeSats for education and research; and military/defense satellites.

Loading next visibility...
Identifier
55421, 2023-014AG
Orbit
LEO
Country
Flag of USUS
Related business
Manufacturer
SpaceX/Seattle
Mission
Operational Commercial Communications
Bus & Motor
STARLINK, Unknown motor
Mass
305 kg wet, ~290 kg dry
Launch date (UTC)
2023-01-31 (3 years ago)
Launch vehicle
FALCON 9
Launch site
Air Force Western Test Range (AFWTR)
Object type
Payload
Rocket body
Debris
Shape & HBR
Box + 1 Pan, 10.1 m
Radar Cross Section
13.562 m², Large (>1 m²)

Expand to show TLE details & history
Last TLE update: 2 days ago

TLE from 2 days ago
0 STARLINK-5598
1 55421U 23014AG  26171.44053319  .00000681  00000-0  64911-4 0  9993
2 55421  69.9993 185.3666 0003700 267.1316  92.9420 14.98320774186955
Epoch: 2026-06-20T10:34Z
TLE epoch observation values (Epoch: 2026-06-20T10:34:22.067Z)
Latitude
Longitude
118.11953°
Altitude
574.641 km
Speed
7.574 km/s
True Right ascension
12h 21m 27s
True Declination
0° 00' 00"
Sunlit
Object was in daylight at epoch
Visualization orbit readout
Latitude
Unknown
Longitude
Unknown
Altitude
Unknown
Speed
Unknown
Apparent Right ascension
Unknown
Apparent Declination
Unknown
Sunlit
N/A
Visualization observer readout
Local Sidereal Time
23:07:38
Azimuth
Unknown
Elevation
Unknown
Doppler factor
Unknown
Orbital elements
Apogee altitude
572.604 km
Perigee altitude
567.462 km
Semi-major axis
6,948.17 km
Eccentricity
0.00037
Inclination
69.9993°
RAAN
185.3666°
Arg. of periapsis
267.1316°
True anomaly
92.98434°
Mean anomaly
92.942°
Eccentric anomaly
92.96317°
Mean motion
3.74746 °/min
Orbital period
96.06 mins
BSTAR
0.000064911
Loading maneuver chart data...
Computing Atmospheric mass density...

Documentation

Showing up to 5 results
|